Погода в Кааламо

Россия / Республика Карелия     61°54′07″N   30°29′50″E
темп.,
°C
ветер,
м/с
пор.,
м/с
влажн.,
%
обл.,
%
осадки,
мм/ч
давл.,
гПа
погр.,
м
29 июля, чт
чт2900:00+16вюв2395100 0.8 100689
03:00+16ю2498100 0.8 1004112
06:00+16ююв269765 0.2 1003261
09:00+19юз2581100 0.5 1001527
12:00+20юз4683100 3.7 1000645
15:00+20юз3873100 4.4 999561
18:00+22юз476096 0.2 9981231
21:00+18ю278499 1.0 997181
30 июля, пт
пт3000:00+14всв119816 2.3 99714
03:00+14ю25978 2.3 997109
06:00+14ююз3109710 0.0 997338
09:00+18юз4776100 0.0 997793
12:00+20зюз585916 0.6 9971500
15:00+19юз695874 0.9 9961322
18:00+18юз5107297 0.9 9961251
21:00+15ююз4108460 1.3 995596
31 июля, сб
сб3100:00+12ююв289896 0.2 995198
03:00+12ююв249720 0.2 99492
06:00+13юв1393100 0.0 99384
09:00+18юв126779 0.0 993598
12:00+21ю235161 0.3 9941440
15:00+21з345364 0.6 9951125
18:00+21зюз445015 0.0 9961474
21:00+17зюз24765 0.1 99872
1 августа, вс
вс100:00+14ююз258823 0.0 99988
03:00+13юз26931 0.0 999104
06:00+14ю258746 0.0 999142
09:00+19ю366298 0.0 999596
12:00+15ююв4996100 2.8 999482
15:00+17ююв488766 3.5 997794
18:00+18ю477580 0.1 995668
21:00+16ююз3109673 1.0 995475
2 августа, пн
пн200:00+14ююз4129620 1.1 996628
03:00+13ю3109858 1.1 997497
06:00+13ююз399799 0.1 997722
09:00+15юз598024 0.4 9971105
12:00+14зюз5108218 0.6 999922
15:00+18з5847100 0.9 10012081
18:00+17зюз484731 0.0 10021599
21:00+12юз117014 0.0 100218